Flag for Germany Weather past 2 weeks in Neuss, North Rhine-Westphalia, Germany

Now
54 °F

Partly sunny.


Feels Like: 51 °F
Forecast: 40 / 64 °F
Wind: 9 mph from Northwest

Location: Duesseldorf

Current Time: May 26, 2015 at 10:19:47 AM

Latest Report: May 26, 2015 at 9:50 AM


Visibility: N/A

Pressure: 30.12 "Hg

Humidity: 58%

Dew point: 39 °F

Location of NeussLocation

Historic Weather in Neuss — Graph

°F

Neuss temperature yesterday

Maximum temperature yesterday: 61 °F (at 3:50 PM)
Minimum temperature yesterday: 48 °F (at 1:50 AM)
Average temperature yesterday: 55 °F

Past Weeks' High & Low Weather Summary

 TemperatureHumidityPressure
High79 °F (May 11, 4:20 PM)100% (May 16, 3:50 PM)30.33 "Hg (May 16, 3:50 PM)
Low37 °F (May 21, 4:20 AM)32% (May 13, 6:20 PM)29.65 "Hg (May 18, 6:20 PM)
Average56 °F65%30.06 "Hg
* Reported May 11 9:20 AM — May 26 9:20 AM, Neuss, Weather by CustomWeather, © 2015

Note: Actual official high and low records may vary slightly from our data, if they occured in-between our weather recording intervals... More about our weather records

Advertising

Neuss weather history for previous 24 hours

 ConditionsComfort  
Time TempWeatherWind HumidityBarometerVisibility
9:20 AM
Tue, May 26
54 °FPartly sunny.8 mph63%30.12 "HgN/A
8:50 AM52 °FPartly sunny.9 mph67%30.12 "HgN/A
8:20 AM52 °FPartly sunny.7 mph77%30.09 "HgN/A
7:50 AM50 °FPartly sunny.7 mph82%30.09 "HgN/A
7:20 AM50 °FPartly sunny.7 mph76%30.09 "HgN/A
6:50 AM50 °FPartly sunny.9 mph82%30.09 "HgN/A
6:20 AM50 °FPassing clouds.7 mph82%30.07 "HgN/A
5:50 AM50 °FPartly cloudy.7 mph76%30.07 "HgN/A
5:20 AM50 °FPartly cloudy.8 mph76%30.07 "HgN/A
4:50 AM50 °FPartly cloudy.8 mph76%30.07 "HgN/A
4:20 AM50 °FPartly cloudy.8 mph76%30.07 "HgN/A
3:50 AM50 °FPassing clouds.8 mph76%30.04 "HgN/A
3:20 AM50 °FPassing clouds.9 mph76%30.04 "HgN/A
2:50 AM52 °FPassing clouds.8 mph72%30.04 "HgN/A
2:20 AM52 °FPartly cloudy.10 mph72%30.04 "HgN/A
1:50 AM52 °FPassing clouds.7 mph72%30.04 "HgN/A
1:20 AM52 °FPartly cloudy.7 mph72%30.04 "HgN/A
12:50 AM52 °FPassing clouds.9 mph72%30.04 "HgN/A
12:20 AM54 °FPartly cloudy.10 mph63%30.04 "HgN/A
11:50 PM
Mon, May 25
54 °FPartly cloudy.10 mph67%30.04 "HgN/A
11:20 PM54 °FPartly cloudy.8 mph72%30.01 "HgN/A
10:20 PM55 °FPartly sunny.7 mph67%30.01 "HgN/A
9:50 PM55 °FBroken clouds.10 mph67%30.01 "HgN/A
9:20 PM57 °FBroken clouds.8 mph63%30.01 "HgN/A
8:50 PM57 °FPartly sunny.6 mph59%29.98 "HgN/A
8:20 PM59 °FPartly sunny.8 mph55%29.98 "HgN/A
7:50 PM59 °FPartly sunny.7 mph55%29.98 "HgN/A
7:20 PM59 °FPartly sunny.8 mph55%29.98 "HgN/A
6:50 PM59 °FPartly sunny.10 mph59%29.98 "HgN/A
6:20 PM61 °FPartly sunny.10 mph52%29.95 "HgN/A
5:50 PM61 °FPartly sunny.12 mph52%29.95 "HgN/A
5:20 PM61 °FBroken clouds.8 mph55%29.95 "HgN/A
4:50 PM61 °FScattered clouds.6 mph55%29.95 "HgN/A
4:20 PM61 °FBroken clouds.6 mph59%29.95 "HgN/A
3:50 PM61 °FBroken clouds.3 mph59%29.95 "HgN/A
3:20 PM59 °FBroken clouds.5 mph63%29.98 "HgN/A
2:50 PM59 °FScattered clouds.5 mph68%29.98 "HgN/A
2:20 PM57 °FBroken clouds.7 mph72%29.98 "HgN/A
1:50 PM55 °FPartly sunny.8 mph77%29.98 "HgN/A
1:20 PM55 °FPartly sunny.8 mph72%29.98 "HgN/A
12:50 PM55 °FPartly sunny.7 mph77%29.98 "HgN/A
12:20 PM54 °FPartly sunny.7 mph82%29.98 "HgN/A
11:50 AM52 °FPartly sunny.10 mph88%29.98 "HgN/A
11:20 AM54 °FDrizzle. Fog.1 mph94%29.98 "Hg2 mi
10:50 AM54 °FDrizzle. Fog.6 mph94%29.98 "Hg2 mi
10:20 AM54 °FDrizzle. Fog.6 mph94%29.98 "Hg1 mi
Weather by CustomWeather, © 2015

See weather overviewHow to use our weather pages